Location: Avon School (historical)
(37.7514°N, 90.2201°W)
Time: 03:06:43
(UTC+00:00)

Vanguard 2 Rocket - Pass Details

Date: 16 November 2024
Orbit: 554 x 3296 km, 32.9° (Epoch: 03 December)

Event Time Altitude Azimuth Distance (km) Brightness Sun altitude
Rises 10:19:42 0° 205° (SSW) 4,572 10.3 -28.2°
Reaches altitude 10° 10:22:47 10° 194° (SSW) 3,942 10.0 -27.6°
Maximum altitude 10:32:09 31° 137° (SE) 3,468 10.2 -25.8°
Drops below altitude 10° 10:45:56 10° 84° (E) 5,879 12.1 -23.0°
Sets 10:51:49 0° 77° (ENE) 7,141 12.7 -21.9°
